This demonstration page uses our WeatherBlox Daily Observations layout. Learn more.

Left ArrowRight Arrow

39.01783, -85.05884

Hourly Observations for March 11, 2022

Temp ( °F °C ) Dew Point ( °F °C ) Humidity (%) Winds ( mph kmh ) Pressure ( in mb ) Visibility ( mi km ) Precip ( " mm )
12:52 am 00:52 Clear 39 3.9 31 -0.6 73 73 SE 8 13 30.03 1017 10 16 0.00 0.00
1:52 am 01:52 Clear 39 3.9 30 -1.1 70 70 SSE 5 7 30.01 1016 10 16 0.00 0.00
2:52 am 02:52 Clear 39 3.9 31 -0.6 73 73 S 3 6 30.01 1016 10 16 0.00 0.00
3:52 am 03:52 Mostly Clear 38 3.3 30 -1.1 73 73 S 3 6 29.99 1016 10 16 0.00 0.00
4:52 am 04:52 Clear 38 3.3 30 -1.1 73 73 Calm 29.98 1015 10 16 0.00 0.00
5:52 am 05:52 Partly Cloudy 37 2.8 29 -1.7 73 73 S 3 6 29.97 1015 10 16 0.00 0.00
6:52 am 06:52 Mostly Cloudy 36 2.2 29 -1.7 76 76 SSE 3 6 29.97 1015 10 16 0.00 0.00
7:52 am 07:52 Partly Cloudy 37 2.8 31 -0.6 79 79 S 5 7 29.97 1015 8 13 0.00 0.00
8:52 am 08:52 Mostly Cloudy 43 6.1 32 0 65 65 SSW 8 13 29.97 1015 10 16 0.00 0.00
9:52 am 09:52 Mostly Cloudy 50 10 33 0.6 52 52 SSW 8 13 29.95 1014 10 16 0.00 0.00
10:52 am 10:52 Mostly Cloudy 52 11.1 33 0.6 49 49 SW 13 20 29.95 1014 10 16 0.00 0.00
11:52 am 11:52 Mostly Cloudy 52 11.1 35 1.7 53 53 W 13 20 29.93 1014 10 16 0.00 0.00
12:52 pm 12:52 Cloudy 55 12.8 35 1.7 47 47 W 10 17 29.92 1013 10 16 0.00 0.00
1:52 pm 13:52 Cloudy 50 10 35 1.7 57 57 WNW 16 26 29.91 1013 9 14 0.00 0.00
2:52 pm 14:52 Cloudy 47 8.3 33 0.6 59 59 WNW 15 24 29.92 1013 8 13 0.00 0.00
3:52 pm 15:52 Cloudy 41 5 33 0.6 73 73 NW 20 31 29.93 1014 8 13 0.00 0.00
4:28 pm 16:28 Cloudy 38 3.3 32 0 79 79 NW 21 33 29.97 1015 8 13 0.00 0.00
4:52 pm 16:52 Cloudy 36 2.2 31 -0.6 82 82 NW 18 30 29.95 1014 10 16 0.00 0.00
5:05 pm 17:05 Cloudy 35 1.7 31 -0.6 85 85 NW 18 30 29.98 1015 9 14 0.00 0.00
5:41 pm 17:41 Cloudy with Light Snow 34 1.1 28 -2.2 79 79 NW 17 28 30.00 1016 10 16 0.00 0.00
5:50 pm 17:50 Cloudy with Light Snow 34 1 28 -2 81 81 NW 18 30 30.01 1016 2 3 0.00 0.00
5:52 pm 17:52 Cloudy with Light Snow 33 0.6 29 -1.7 85 85 NW 16 26 29.98 1015 2 2 0.00 0.00
6:02 pm 18:02 Mostly Cloudy with Light Snow 32 0 31 -0.6 96 96 NW 17 28 30.03 1017 1 1 0.00 0.00
6:11 pm 18:11 Mostly Cloudy with Snow 32 0 31 -0.6 96 96 WNW 18 30 30.03 1017 1 1 0.01 0.25
6:26 pm 18:26 Mostly Cloudy with Heavy Snow 31 -0.6 31 -0.6 100 100 NW 16 26 30.03 1017 0 0 0.01 0.25
6:35 pm 18:35 Mostly Cloudy with Heavy Snow 31 -0.6 31 -0.6 100 100 NW 17 28 30.03 1017 1 2 0.03 0.76
6:41 pm 18:41 Mostly Cloudy with Heavy Snow 30 -1.1 30 -1.1 100 100 NW 14 22 30.03 1017 0 0 0.04 1.02
6:46 pm 18:46 Mostly Cloudy with Snow 30 -1 30 -1 100 100 NW 17 28 30.02 1017 1 1 0.05 1.27
6:52 pm 18:52 Mostly Cloudy with Snow 30 -1.1 30 -1.1 100 100 NW 18 30 29.99 1016 1 1 0.05 1.27
7:04 pm 19:04 Cloudy with Light Snow 30 -1.1 29 -1.7 96 96 NW 18 30 30.02 1017 1 1 0.01 0.25
7:18 pm 19:18 Cloudy with Light Snow 29 -1.7 29 -1.7 100 100 NNW 17 28 30.01 1016 1 1 0.01 0.25
7:47 pm 19:47 Cloudy with Light Snow 28 -2 28 -2 100 100 NW 14 22 30.01 1016 1 2 0.02 0.51
7:52 pm 19:52 Cloudy with Light Snow 29 -1.7 28 -2.2 96 96 NW 12 19 29.97 1015 1 2 0.02 0.51
8:12 pm 20:12 Cloudy with Light Snow 29 -1.7 27 -2.8 92 92 NW 12 19 30.00 1016 2 3 0.01 0.25
8:47 pm 20:47 Cloudy with Light Snow 28 -2 28 -2 100 100 WNW 9 15 30.01 1016 1 2 0.01 0.25
8:52 pm 20:52 Cloudy with Light Snow 29 -1.7 28 -2.2 96 96 NW 12 19 29.97 1015 1 2 0.01 0.25
9:15 pm 21:15 Cloudy with Light Snow 29 -1.7 27 -2.8 92 92 NW 17 28 30.00 1016 1 2 0.01 0.25
9:52 pm 21:52 Cloudy with Light Snow 28 -2.2 27 -2.8 96 96 NW 17 28 29.95 1014 1 2 0.01 0.25
10:20 pm 22:20 Cloudy with Light Snow 27 -2.8 23 -5 85 85 NW 13 20 30.02 1016 3 5 0.00 0.00
10:52 pm 22:52 Cloudy with Mist and Fog 28 -2.2 23 -5 81 81 NW 10 17 29.96 1015 3 5 0.00 0.00
11:52 pm 23:52 Cloudy 28 -2.2 19 -7.2 69 69 NW 20 31 29.96 1014 10 16 0.00 0.00

Powered by AerisWeather